{"data":{"norad_id":66464,"intl_designator":"2025-262J","name":"STARLINK-35435","alt_names":[],"object_type":"PAYLOAD","status":"ACTIVE","operator":null,"country":"US","launch_date":"2025-11-15","launch_site_code":"AFETR","launch_vehicle":null,"mission":null,"orbit_class":"UNKNOWN","rcs_meters":null,"size_class":null,"mass_kg":null,"dimensions":null,"purposes":["comms"],"wikipedia_slug":null,"has_3d_model":false,"image_url":null,"decayed_at":null,"tle_current":{"epoch":"2026-09-20T11:48:41.961312Z","epoch_age_seconds":90014,"freshness":"FRESH","line1":"1 66464U 25262J   26263.49215233  .00008864  00000+0  33126-3 0  9994","line2":"2 66464  43.0031 275.6229 0001618 266.5962  93.4705 15.27577359 48702","mean_motion":15.27577359,"eccentricity":0.0001618,"inclination_deg":43.0031,"raan_deg":275.6229,"arg_perigee_deg":266.5962,"mean_anomaly_deg":93.4705,"bstar":0.00033126,"rev_number":4870,"period_min":94.266911689675,"perigee_km":481.94686296527,"apogee_km":484.16714534501,"semimajor_km":6861.1940041551,"source":"CELESTRAK","updated_at":"2026-09-21T09:00:35.913942Z"}}}